EHI
0 0 0 0 0 0 0 0 0 0 0 3 7 8 6 3 2 2 2 5 11 17 19 19 20 24 28 31 33 34 34 32 31 30 28 26 23 22 22 21 19 15 12 11
0 0 0 0 0 0 0 0 0 0 1 3 6 6 5 3 2 1 2 5 11 15 18 19 20 23 27 29 31 31 31 31 30 28 27 25 21 19 19 18 16 14 12 10
0 0 0 0 0 0 0 0 0 0 1 2 3 3 3 3 2 1 2 7 13 15 16 17 19 22 25 28 28 28 28 27 26 25 25 23 18 15 15 13 11 10 10 9
0 0 0 0 0 0 0 0 0 0 0 1 1 1 2 3 3 3 5 9 14 15 14 15 17 19 23 24 24 25 25 23 22 21 21 19 16 12 10 8 7 7 7 7
0 0 0 0 0 0 0 0 0 0 0 0 0 0 1 2 3 5 7 9 12 13 12 13 15 17 19 19 20 22 24 22 19 18 16 13 10 8 6 4 4 5 5 4
0 0 0 0 0 0 0 0 0 0 0 0 0 0 2 2 3 6 9 10 11 11 11 12 14 15 15 15 17 20 22 20 17 15 12 8 5 3 3 2 3 4 3 2
0 0 0 0 0 0 0 0 0 0 0 0 0 0 1 2 3 6 8 10 11 11 10 11 13 14 14 14 16 18 17 15 13 10 7 4 1 1 1 1 2 3 3 3
0 0 0 0 0 0 0 0 0 0 0 0 0 0 1 2 3 5 6 8 10 10 8 8 10 12 13 13 14 15 13 11 9 6 5 2 0 0 0 0 1 1 2 3
0 0 0 0 0 0 0 0 0 0 0 0 0 0 2 3 3 3 4 5 6 7 5 4 5 8 11 12 12 11 9 6 4 4 5 3 1 0 0 0 0 0 1 2
0 0 0 0 0 0 0 0 0 0 0 0 0 0 1 2 2 1 2 3 3 3 2 2 2 3 5 8 8 6 3 2 2 3 3 2 0 0 0 0 0 0 0 1
0 0 0 0 0 0 0 0 0 0 0 0 0 0 0 0 0 0 1 2 1 1 1 1 1 1 2 4 5 3 1 0 2 2 1 0 0 0 0 0 0 0 0 0
0 0 0 0 0 0 0 0 0 0 0 0 0 0 0 0 0 0 0 0 0 0 0 0 0 0 1 3 3 2 1 0 1 1 0 0 0 0 0 0 0 0 0 0
0 0 0 0 0 0 0 0 0 0 0 0 0 0 0 0 0 0 0 0 0 0 0 0 0 0 2 3 3 2 1 0 0 0 0 0 0 0 0 0 0 0 0 0
0 0 0 0 0 0 0 0 0 0 0 0 0 0 0 0 0 0 0 0 0 0 1 1 0 0 1 2 2 1 0 0 0 0 0 0 0 0 0 0 0 0 0 0
0 0 0 0 0 0 0 0 0 0 0 0 0 0 0 0 0 0 0 0 0 1 2 2 1 0 1 1 1 0 0 0 0 0 0 0 0 0 0 0 0 0 0 0
0 0 0 0 0 0 0 0 0 0 0 0 0 0 0 0 0 0 0 0 1 1 3 3 2 0 0 0 0 0 0 0 0 0 0 0 0 0 0 0 0 0 0 0
0 0 0 0 0 0 0 0 0 0 0 0 0 0 0 0 0 0 0 0 1 2 2 2 1 0 0 0 0 0 0 0 0 0 0 0 0 0 0 0 0 0 0 0
0 0 0 0 0 0 0 0 0 0 0 0 0 0 0 0 0 0 0 0 1 1 1 1 0 0 0 0 0 0 0 0 0 0 0 0 0 0 0 0 0 0 0 0
0 0 0 0 0 0 0 0 0 0 0 0 0 0 0 0 0 0 0 0 0 0 0 0 0 0 0 0 0 0 0 0 0 0 0 0 0 0 0 0 0 0 0 0
0 0 0 0 0 0 0 0 0 0 0 0 0 0 0 0 0 0 0 0 0 0 0 0 0 0 0 0 0 0 0 0 0 0 0 0 0 0 0 0 0 0 0 0
0 0 0 0 0 0 0 0 0 0 0 0 0 0 0 0 0 0 0 0 0 0 0 0 0 0 0 0 0 0 0 0 0 0 0 0 0 0 0 0 0 0 0 0
0 0 0 0 0 0 0 0 0 0 0 0 0 0 0 0 0 0 0 0 0 0 0 0 0 0 0 0 0 0 0 0 0 0 0 0 0 0 0 0 0 0 0 0
0 0 0 0 0 0 0 0 0 0 0 0 0 0 0 0 0 0 0 0 0 0 0 0 0 0 0 0 0 0 0 0 0 0 0 0 0 0 0 0 0 0 0 0
0 0 0 0 0 0 0 0 0 0 0 0 0 0 0 0 0 0 0 0 0 0 0 0 0 0 0 0 0 0 0 0 0 0 0 0 0 0 0 0 0 0 0 0
0 0 0 0 0 0 0 0 0 0 0 0 0 0 0 0 0 0 0 0 0 0 0 0 0 0 0 0 0 0 0 0 0 0 0 0 0 0 0 0 0 0 0 0
0 0 0 0 0 0 0 0 0 0 0 0 0 0 0 0 0 0 0 0 0 0 0 0 0 0 0 0 0 0 0 0 0 0 0 0 0 0 0 0 0 0 0 0
Wind_Speed
1 2 3 7 6 6 4 2 4 5 2 2 2 2 1 1 4 4 3 3 2 2 1 2 4 4 5 5 5 5 4 3 3 2 2 2 1 1 1 2 3 3 2 2
4 4 10 7 5 3 2 2 4 4 2 2 2 2 2 3 3 4 4 3 3 2 2 2 4 4 3 4 4 5 4 4 3 2 2 2 1 1 1 1 1 2 2 3
5 7 5 3 2 2 2 2 3 3 3 3 4 3 4 3 5 5 4 3 4 4 3 2 2 3 3 4 4 4 4 3 3 3 2 2 2 1 1 1 1 2 3 3
4 5 1 1 3 0 3 3 2 2 1 1 2 1 3 1 4 4 3 3 3 2 2 2 2 2 3 3 3 3 3 3 3 3 3 3 2 2 2 2 2 2 2 2
4 1 2 1 4 2 4 3 2 2 1 1 2 2 3 1 1 2 2 2 2 1 2 2 2 1 1 1 2 3 3 3 2 2 2 2 1 1 1 1 1 2 2 2
4 2 1 1 2 1 2 4 4 4 4 1 2 3 2 1 3 1 1 2 3 3 3 3 2 2 2 2 1 2 3 2 1 1 1 2 2 1 1 1 1 2 2 2
8 6 5 3 5 6 6 6 5 6 4 3 1 3 3 2 2 3 3 2 2 3 3 3 3 3 2 1 2 2 2 1 1 1 1 1 2 2 2 2 2 2 2 2
5 7 6 5 2 2 2 5 5 2 2 3 3 1 2 2 2 3 3 3 3 4 4 3 3 3 2 2 2 2 2 0 0 0 1 1 1 1 2 2 2 2 2 3
2 6 6 6 4 2 3 2 3 5 1 1 1 1 2 3 4 4 4 4 3 3 3 2 3 4 2 2 1 1 2 1 1 1 1 1 1 1 2 2 2 2 2 3
2 3 7 7 6 7 3 2 5 4 2 2 3 1 2 2 0 2 2 2 2 2 3 3 3 2 2 2 1 1 1 2 1 1 1 1 1 2 3 2 2 2 2 2
3 1 7 6 4 4 5 5 4 2 2 3 2 3 2 3 2 2 1 2 2 2 2 2 2 2 2 2 2 1 1 1 1 1 1 1 2 2 2 2 2 2 2 2
2 3 2 5 5 2 3 2 3 2 2 1 2 5 3 1 2 3 2 2 2 3 2 2 2 2 2 2 2 1 1 0 1 1 2 2 2 2 2 2 3 2 3 2
3 4 4 8 8 8 5 3 1 3 3 1 1 4 3 3 2 2 2 2 2 3 3 3 3 2 2 1 2 1 1 1 1 1 1 2 2 2 3 3 3 2 2 2
4 3 3 3 5 5 7 7 4 3 2 1 2 3 3 2 1 1 1 1 1 2 2 2 2 2 2 1 1 2 2 2 2 1 1 2 2 2 3 3 3 3 2 2
5 2 1 4 5 3 5 6 5 2 1 3 3 2 2 2 1 0 1 1 2 2 2 2 1 2 2 2 2 2 2 2 2 2 2 2 3 2 2 3 3 3 3 3
3 1 2 3 1 4 6 7 6 4 3 2 2 1 2 1 2 2 1 1 0 1 1 1 2 2 2 3 2 3 3 3 2 2 2 3 2 2 2 3 3 3 3 3
1 2 2 3 5 4 5 6 5 3 3 2 1 2 2 2 1 0 1 1 1 0 1 1 1 2 2 3 3 3 3 2 2 2 2 2 2 3 3 3 3 3 3 2
3 2 2 1 4 2 3 2 3 4 5 4 3 1 0 1 1 1 1 1 1 1 1 1 2 2 3 3 3 2 2 2 2 2 2 3 2 3 3 3 3 3 2 2
4 4 2 1 0 3 3 4 3 1 2 3 3 3 3 1 3 2 2 1 1 1 1 1 2 3 3 3 2 2 2 2 2 3 3 3 2 2 3 3 3 3 2 3
4 4 3 2 1 3 4 5 4 2 1 2 2 2 2 3 2 3 3 1 1 1 1 2 2 2 2 3 2 1 2 2 3 4 3 3 2 2 2 3 3 3 2 3
4 3 1 1 2 4 3 4 4 2 5 3 1 1 1 1 4 4 2 2 2 1 2 2 2 2 3 3 1 2 2 3 4 3 3 3 3 2 3 2 2 2 2 2
0 0 1 1 0 4 4 3 1 4 4 2 1 1 1 2 2 1 1 2 2 2 2 2 2 3 3 2 1 2 3 4 3 3 3 3 3 3 2 2 2 2 2 2
1 3 3 4 5 5 3 1 2 3 1 2 2 2 1 1 1 1 2 3 3 3 3 2 2 3 4 3 2 3 4 3 2 2 3 3 3 3 2 1 1 2 1 1
3 1 1 2 3 3 4 2 1 0 1 2 2 2 1 1 2 3 3 3 3 3 3 2 2 3 4 4 3 4 5 3 2 3 3 3 3 3 2 1 1 1 1 1
4 2 1 3 4 4 3 2 2 2 2 1 1 1 1 2 3 4 4 4 3 3 3 2 2 3 4 4 4 5 4 2 2 3 3 3 2 2 2 2 1 1 2 2
4 4 4 6 6 4 6 4 3 2 3 2 2 2 2 2 4 4 3 3 3 3 3 3 3 4 4 4 4 4 3 2 2 2 2 2 2 2 1 1 2 3 3 4
Wind_Direction
332 57 266 251 221 213 226 245 275 279 274 76 128 137 132 123 99 99 107 112 101 113 117 104 107 118 131 131 134 140 132 139 136 131 151 160 179 190 188 207 200 194 191 184
9 270 244 239 244 223 242 290 290 296 310 92 106 65 58 81 94 104 107 109 117 79 58 93 113 108 127 138 138 135 139 146 146 152 163 169 171 198 199 223 219 208 205 207
207 247 247 219 267 282 278 252 264 288 341 61 95 18 11 36 56 67 74 98 113 118 117 116 120 122 139 148 154 151 147 141 144 141 120 88 58 24 1 283 261 237 224 224
247 261 272 314 311 285 278 265 269 286 24 284 127 167 306 23 40 35 39 56 80 107 105 93 96 122 166 170 156 141 138 134 140 142 146 147 163 208 233 229 238 250 238 237
296 298 82 350 291 295 263 271 264 240 139 42 6 113 288 48 44 342 26 43 71 89 97 76 74 161 180 142 136 136 127 128 137 125 143 141 164 208 223 233 238 264 278 259
292 306 119 275 305 297 341 9 9 44 71 34 266 129 286 248 215 192 62 58 64 65 64 65 69 94 49 45 78 123 122 117 130 132 137 138 154 175 179 267 273 283 284 277
341 343 352 11 2 349 35 59 25 8 16 269 268 109 250 259 178 160 147 102 80 80 72 64 62 74 72 88 89 108 122 135 129 92 106 161 177 176 203 225 237 261 277 268
7 327 340 360 350 292 341 112 137 201 249 287 350 100 273 330 106 112 114 114 93 72 62 52 53 76 85 98 108 106 106 99 41 9 278 238 202 207 226 230 233 240 247 256
12 296 318 341 341 54 25 11 160 137 5 350 326 19 340 34 64 84 92 86 75 70 63 51 44 47 44 76 97 125 121 120 210 227 227 229 248 247 242 248 247 247 251 256
81 301 316 329 7 18 84 90 59 73 72 320 319 312 277 294 316 59 64 75 75 61 58 50 41 41 34 46 62 85 150 189 215 234 237 235 249 255 250 249 259 260 262 264
64 52 319 352 15 1 22 29 57 74 137 156 280 281 261 237 197 141 119 98 71 64 71 62 38 24 25 33 34 29 342 213 223 248 252 255 258 265 269 260 256 257 265 266
33 98 311 295 302 17 77 85 103 115 276 167 178 268 303 229 167 146 130 101 69 58 62 61 45 28 24 20 13 4 338 313 271 268 274 262 261 264 268 269 268 266 264 260
44 71 10 345 348 2 9 355 35 128 121 136 165 266 333 22 74 105 115 93 63 51 46 42 37 17 2 342 344 340 336 290 281 302 301 287 277 265 260 270 277 276 272 271
78 86 137 209 261 304 321 329 349 71 114 208 221 249 319 351 28 34 77 80 68 68 57 40 20 349 332 316 325 338 316 300 301 317 315 296 283 272 268 274 280 277 273 270
72 67 291 267 270 303 333 343 357 17 183 179 235 226 264 271 236 207 111 67 56 57 44 29 348 324 332 335 338 330 319 306 303 309 299 285 282 290 298 294 289 283 279 272
62 98 344 314 319 8 6 0 5 18 35 84 88 321 288 323 47 37 25 88 94 47 6 353 346 336 329 322 320 323 309 297 291 284 278 285 294 293 297 301 295 292 289 290
24 99 47 308 317 12 13 348 9 31 39 99 113 278 317 30 58 222 241 203 170 236 316 324 312 298 292 296 292 291 286 296 309 283 279 291 294 303 301 305 306 296 291 291
167 119 124 309 14 14 253 324 30 60 57 63 79 18 22 178 184 203 224 206 249 293 305 304 296 294 287 287 290 290 297 304 300 287 284 292 297 305 307 307 303 297 298 293
162 146 125 106 7 277 305 351 344 39 39 30 53 18 3 28 44 352 284 228 206 241 255 269 273 277 278 281 286 318 323 317 307 294 280 277 277 289 302 302 297 293 300 298
50 84 111 119 163 252 269 318 324 82 343 323 26 6 353 15 7 288 295 324 322 284 258 273 291 306 299 293 299 325 315 313 297 286 277 273 268 269 280 282 281 283 283 278
356 6 61 182 222 261 280 325 18 53 266 288 312 274 321 265 234 258 283 301 291 263 270 279 305 308 289 294 313 311 309 291 280 284 284 282 271 265 268 276 282 290 295 307
194 17 344 77 303 267 315 22 75 234 249 253 259 248 294 288 286 292 292 297 304 289 284 285 297 297 293 293 303 302 292 277 286 298 299 290 283 281 293 291 301 314 312 319
200 186 192 191 221 250 293 235 228 193 222 252 243 255 245 296 305 307 292 287 284 272 275 278 277 296 300 292 276 268 274 273 287 309 302 292 296 296 303 283 286 312 319 310
301 353 82 311 278 289 309 334 359 66 252 266 251 241 214 238 276 295 283 274 278 278 277 277 286 298 299 296 285 263 269 272 269 286 294 297 304 313 317 299 267 272 285 291
258 309 314 273 277 309 311 309 314 329 340 327 293 259 223 233 276 275 270 269 267 273 268 262 258 264 275 284 280 274 270 262 270 279 286 292 293 300 299 297 280 247 251 223
236 211 214 242 240 229 261 267 276 295 293 277 281 296 278 246 254 267 266 262 261 271 269 272 264 259 267 275 279 281 277 256 251 281 291 285 288 292 277 287 318 316 283 289